Погода Одесское

Погода Одесское : погода сейчас, прогноз погоды и архив. Всё, что Вы хотите узнать о погоде Одесское!

Хотите узнать прогноз погоды Одесское? Тогда Вам сюда: Погода Одесское

Поиск расширенной информации на нашем сайте:

Другие новости

Новости СМИ2

Главная страница сайта

Новости сайта

02.10.2013

Напоминаем, что на нашем новом сайте вы можете получить высокодетализированные прогнозы погоды по пунктам России, СНГ и мира (включающие важные для авиации метеовеличины, такие как направление и скорость ветра, видимость, явления погоды, количество и форма облачности, нижняя и верхняя граница облачности), а также ознакомиться с разнообразными материалами по авиационной метеорологии и подборкой полезных ссылок на эту тему.

Сайт Метеоцентр.Азия посвящён разработке технологий оптимизации авиаметеорологического обслуживания, включая проектирование и перспективное создание нескольких автоматизированных авиаметеорологических систем:
- система выпуска высокодетальных прогностических карт явлений погоды для нижнего воздушного пространства по России и ближнему зарубежью;
- система верификации прогнозов TAF (выпускаемых синоптиками официальных АМСГ РФ и ближнего зарубежья) и AUTOTAF (выпускаемых сайтом Метеоцентр.Азия) - выявление ошибок, онлайн-сопоставление с фактической погодой METAR, автоматическое внесение коррективов в прогнозы при резком отклонении фактической погоды от прогноза, подсчёт оправдываемости прогнозов по элементам и в целом;
- система обработки, анализа и отображения авиаметеорологической информации для применения провайдерами метеорологической информации.

Рекомендуем: атермальная пленка

Погода Одесское - сегодня

Время (UTC), дата Ветер
(°,м/с) 
Видим.   Явления Облачность Т
(°С)
Тd
(°С)
f(%) Тe
(°С)
Pmin
(гПа)
dP
(гПа)
Po
(мм)
O2
(г/м3)
Тmin Tmax R s Состояние
почвы
21 27.03.17 190 (Ю) 5{13}  4000 м  слаб. дождь  10/10 960 м 
[Sc]
+1.8 +0.7 92 -1  1016.1  -0.2  750  300           
00 28.03.17 180 (Ю) 6-11{11}  4000 м  дымка{дождь}  10/0 средняя 
[As op]
+1.2 +0.6 96 -2  1014.1  -2  749  300           
03 28.03.17 180 (Ю) 8-13{14}  4000 м  слаб. дождь{снег}  10/0 средняя 
[As op]
+1.2 +0.3 94 -3  1011.8  -2.2  747  300  +0.9    19  неравномерный
мокрый или
старый снег
100% 
06 28.03.17 190 (Ю) 6-10{13}  10 км  {ливн. осадки, снег}  10/10 800 м 
[Sc]
+1.8 +0.3 90 -1  1011.8  747  299           
09 28.03.17 190 (Ю) 5{11}  10 км    10/3 600 м средняя, верхняя 
[Sc|Ac trans|Ci sp]
+2.3 +0.7 89 1011.8  0.1  747  298           
12 28.03.17 170 (Ю) 10 км    9/5 600 м средняя 
[Sc|Ac trans]
+1.7 +0.9 94 -1  1010.9  -1  747  299           
15 28.03.17 170 (Ю) 7-11{11}  10 км    9/0 средняя 
[Ac und]
+1.3 +0.5 94 -2  1009.2  -1.7  745  299    +2.4  0.5     
18 28.03.17 170 (Ю) 6-10{13}  10 км    10/10 420 м кучево-дожд. 
[Cb calv]
+1.1 +0.5 96 -2  1006.7  -2.4  743  298           
21 28.03.17 180 (Ю) 6-10{10}  10 км  {ливн. осадки}  10/10 450 м кучево-дожд. 
[Cb calv]
+2.3 +1.6 95 -1  1003.5  -3.1  741  296           
00 29.03.17 190 (Ю) 3{13}  4000 м  слаб. ливневой дождь  10/10 420 м кучево-дожд. 
[Cb calv]
+2 +1 93 +1  1001.8  -1.7  740  296           
03 29.03.17 250 (З) 4000 м  слаб. ливневой снег  10/10 500 м кучево-дожд. 
[Cb calv]
+0.5 +0.3 99 -2  1004  741  298  +0.3    12  неравномерный
мокрый или
старый снег
100% 
06 29.03.17 250 (З) 10 км  {ливн. осадки}  4/1 600 м верхняя 
[Cu hum|Ci sp]
+2.2 +0.3 87 -1  1007  3.1  744  297           
09 29.03.17 220 (ЮЗ) 5{10}  10 км    ясно 
+2.7 -0.8 78 1009.4  2.4  746  298           
12 29.03.17 220 (ЮЗ) 10 км    ясно 
+2.7 -1.3 75 +1  1010.2  0.8  746  298           
15 29.03.17 180 (Ю) 10 км    10/0 верхняя 
[Ci]
-0.1 -1.8 88 -2  1010.6  0.2  746  301    +3.2  0.0     
18 29.03.17 160 (Ю) 10 км    10/0 верхняя 
[Ci sp]
-1.3 -2.3 93 -3  1009.3  -1.4  745  302           
21 29.03.17 150 (ЮВ) 10 км    3/0 верхняя 
[Ci fib]
-2.6 -3.4 94 -5  1006.1  -3.2  743  303           
00 30.03.17 140 (ЮВ) 10 км  {снег}  10/10 1020 м 
[Sc]
-0.1 -0.9 94 -3  1001.2  -4.6  739  298           
03 30.03.17 160 (Ю) 6-10{13}  10 км    10/10 240 м 
[St]
+0.5 +0.3 99 -3  997  -4.1  736  296  -3.1    0.0  мокрый или
старый снег
50-90% 
06 30.03.17 200 (Ю) 6-10{12}  10 км  {ливн. осадки}  10/10 720 м кучево-дожд. 
[Cb calv]
+1.8 +1.6 99 -1  995.6  -1.3  735  294           
09 30.03.17 210 (ЮЗ) 7-14{17}  10 км  {ливн. осадки}  9/8 840 м кучево-дожд., верхняя 
[Cb calv|Ci sp]
+2.7 -2.7 68 -1  994.5  -1  734  293           
12 30.03.17 220 (ЮЗ) 11-17{19}  10 км  {ливн. осадки}  10/8 960 м средняя 
[Sc|Ac und]
+0.6 -4 71 -4  994.5  0.1  734  296           
15 30.03.17 220 (ЮЗ) 10-18{24}  10 км    10/10 900 м 
[Sc]
-0.8 -3.8 80 -6  994.4  -0.2  734  297    +3.1     
18 30.03.17 230 (ЮЗ) 11-19{20}  4000 м  слаб. ливневой снег  10/10 540 м кучево-дожд. 
[Cb calv]
+0.2 -0.8 93 -5  997.3  2.9  736  297           
21 30.03.17 240 (ЮЗ) 13-20{23}  10 км  {ливн. осадки}  8/8 630 м кучево-дожд. 
[Cb calv]
-0.5 -3.5 80 -6  1003.4  5.9  741  299           
Время (UTC), дата Ветер
(°,м/с) 
Видим.   Явления Облачность Т
(°С)
Тd
(°С)
f(%) Тe
(°С)
Pmin
(гПа)
dP
(гПа)
Po
(мм)
O2
(г/м3)
Тmin Tmax R s Состояние
почвы

Для получения пояснительной информации подведите курсор к названию столбца.

ПОГОДА Одесское - архив

Всё, что Вы хотите узнать о погоде Одесское - удобно и подробно!

Выберите нужную дату (начиная с 1 января 2015* года) и нажмите кнопку "Найти".
Будут отображены архивные сводки погоды по пункту Одесское, начиная с указанной даты.


Отображать данные в формате CSV (для использования в таблицах Excel)


Внимание! Наш архив погоды предназначен исключительно для личного некоммерческого использования в познавательных целях. Если Вам необходимы официальные справки о состоянии погоды (для производственных, юридических, коммерческих и т.п. целей), обращайтесь в органы Росгидромета.

*Примечание: данная дата относится к архиву по метеостанциям СССР (Россия, СНГ, Балтия).
Архив по метеостанциям Зарубежной Европы и Азии (кроме Китая) хранится 10 дней, по другим регионам земного шара (Китай, Африка, Америка, Австралия, Океания) - 1 день.

Одесское - район местоположения метеостанции


Название, широта, долгота, высота метеостанции:
Одесское 54.2°ш. 73°д. 125 м над ур. моря [Российская Федерация]

Дополнительная информация

В oтличие oт бoльшинства пoгoдных сайтoв мы публикуем пoдрoбную метеoинфoрмацию в детальнoм прoфессиoнальнoм фoрмате.

Характеристики температуры и влажнoсти вoздуха измеряются на высoте 2 м в тени вдали oт зданий и деревьев.
Скoрoсть ветра измеряется на высoте 10 м (на урoвне рoста челoвека скoрoсть ветра ниже в 1.5-2 раза). Если метеoстанция нахoдится в гoрoде или в лесу, тo скoрoсть ветра занижена на 2-4 м/с пo сравнению с oткрытым местoм. Скoрoсть ветра над акватoриями крупных рек и oзёр, а также на вершинах хoлмoв на 2-5 м/с выше, чем в oбычных услoвиях.
Атмoсфернoе давление в разных тoчках местнoсти мoжет значительнo oтличаться oт давления на метеoстанции, в зависимoсти oт услoвий рельефа (при пoдъёме на 10 м давление пoнижается примернo на 1 мм рт.ст.).